Location: Franzen
(48.6167°N, 15.3833°E)
Time: 07:45:19
(UTC+00:00)

A-11 Canister half - Pass Details

Date: 03 August 2021
Orbit: 1515 x 1685 km, 47.2° (Epoch: 21 September)

Event Time Altitude Azimuth Distance (km) Brightness Sun altitude
Rises 22:18:47 0° 290° (WNW) 4,916 12.1 -23.3°
Reaches altitude 10° 22:22:29 10° 280° (W) 3,939 11.4 -23.5°
Maximum altitude 22:30:36 29° 226° (SW) 2,746 10.0 -23.7°
Enters shadow 22:32:29 27° 209° (SSW) 2,823 9.9 -23.7°
Drops below altitude 10° 22:38:44 10° 172° (S) 3,931 - -23.9°
Sets 22:42:26 0° 162° (SSE) 4,903 - -24.0°
